Location: Street
(51.1247°N, 2.7429°W)
Time: 12:57:45
(UTC+01:00)

NANOSAT C BR1 - Pass Details

Date: 08 April 2023
Orbit: 573 x 587 km, 98.0° (Epoch: 30 May)

Event Time Altitude Azimuth Distance (km) Brightness Sun altitude
Rises 03:08:50 0° 24° (NNE) 2,805 ? -26.7°
Reaches altitude 10° 03:11:20 10° 38° (NE) 1,897 ? -26.5°
Maximum altitude 03:14:42 24° 94° (E) 1,202 ? -26.2°
Enters shadow 03:15:19 23° 108° (ESE) 1,230 ? -26.1°
